Weather in Chrzanow

Poland     50°07′44″N   19°24′07″E
temp.,
°C
wind,
m/s
gust,
m/s
humid.,
%
clouds,
%
prec.,
mm/h
press.,
hPa
HPBL,
m
27 september, mon
mon2723:00+14e4118649 0.0 1020288
02:00+13e411916 0.0 1020299
05:00+12e3109618 0.0 1019235
08:00+13e4109338 0.0 1019274
11:00+18ese56725 0.0 1019576
14:00+20e5664100 0.0 1018974
17:00+18e467195 0.0 1018749
20:00+14e51181100 0.0 1019439
28 september, tue
tue2823:00+12e4118099 0.0 1020319
02:00+10e3880100 0.0 1021212
05:00+9e2682100 0.0 1021165
08:00+9e3677100 0.0 1022196
11:00+14e3562100 0.0 1023457
14:00+15e4558100 0.0 1023740
17:00+14e356536 0.0 1023657
20:00+10e39815 0.0 1024218
29 september, wed
wed2923:00+9e310821 0.0 1025267
02:00+8e411835 0.0 1024291
05:00+7e412835 0.0 1023272
08:00+7e498381 0.0 1023235
11:00+13ese3464100 0.0 1022363
14:00+17ese3355100 0.0 1021541
17:00+17ese2367100 0.0 1020110
20:00+15ese1175100 0.0 102111
30 september, thu
thu3023:00+14w2376100 0.0 102279
02:00+14w3792100 0.6 1023437
05:00+13w2595100 0.2 1024294
08:00+12w2497100 2.0 1026193
11:00+13wsw2393100 3.1 1027220
14:00+13wnw1187100 5.3 1027339
17:00+12w1289100 0.5 102794
20:00+11ene1190100 0.8 102832
1 october, fri
fri123:00+10ne119274 0.1 102912
02:00+11ene119279 0.1 102818
05:00+11ese129573 0.0 102874
08:00+11ese259297 0.0 1027389
11:00+13se3584100 0.0 1027658
14:00+15se347374 0.1 1025826
17:00+15ese34734 0.0 1024477
20:00+11ese35933 0.0 102497